Simultaneous Nadir Overpasses (SNOs) Predictions

Prediction of SNOs between GOES-15 and METOP-A Satellite Orbit:

Table of predicted SNOs for the next 14.0 days since TLE Epoch: 2/2/2017
Index Date Time (GOES-15) GOES-15 Lat,Lon METOP-A Lat,Lon Distance(km) Time Diff (sec)
1 02/03/2017 06:16:18 -0.02,-135.39 0.72,-132.14 370.92 80
2 02/04/2017 18:37:49 0.03,-135.37 0.31,-136.69 150.45 80
3 02/05/2017 18:14:29 0.02,-135.38 -0.82,-131.70 419.48 80
4 02/07/2017 06:36:09 -0.03,-135.42 -0.24,-136.29 99.63 80
5 02/08/2017 06:12:49 -0.02,-135.42 0.88,-131.29 470.01 80
6 02/09/2017 18:34:20 0.03,-135.40 0.14,-135.85 52.27 80
7 02/12/2017 06:30:01 -0.04,-135.43 -0.02,-135.46 3.56 80
8 02/14/2017 18:28:12 0.03,-135.41 -0.03,-135.01 44.17 80
9 02/16/2017 06:47:12 -0.03,-135.43 -0.97,-139.61 476.23 80




NCC Satellite Simultaneous Nadir Overpasses (SNOs) Prediction Service
